Weather reports worldwide

Advertisment
Abbeville, France (7005): temperature & dewpoint: 19.09.2020 02:00:00 - 25.09.2020 02:00:00 (CEST)Abbeville, France (7005): temperature 5cm: 19.09.2020 02:00:00 - 25.09.2020 02:00:00 (CEST)Abbeville, France (7005): temperature -20cm & temperature -100cm: 19.09.2020 02:00:00 - 25.09.2020 02:00:00 (CEST)Abbeville, France (7005): wind speed & gusts: 19.09.2020 02:00:00 - 25.09.2020 02:00:00 (CEST)Abbeville, France (7005): wind direction: 19.09.2020 02:00:00 - 25.09.2020 02:00:00 (CEST)Abbeville, France (7005): reduced air pressure: 19.09.2020 02:00:00 - 25.09.2020 02:00:00 (CEST)Abbeville, France (7005): visibility: 19.09.2020 02:00:00 - 25.09.2020 02:00:00 (CEST)Abbeville, France (7005): sunshine duration: 19.09.2020 02:00:00 - 25.09.2020 02:00:00 (CEST)Abbeville, France (7005): precipitation: 19.09.2020 02:00:00 - 25.09.2020 02:00:00 (CEST)
Date & Time tt [°C] td [°C] tt 5cm [°C] tt -20cm [°C] tt -100cm [°C] ff [km/h] ff [kn] fx [km/h] fx [kn] dd ppp [hPa] vv [km] sd [min] rr [mm]
25.09.2020 02:00:00 8,4 6,0 7,7 15,2 16,9 8 5 27 15 SSW 996,2 20 0 0,0
25.09.2020 01:00:00 8,8 6,6 8,0 15,5 16,9 9 5 31 17 SSW 996,4 20 0 0,0
25.09.2020 00:00:00 9,7 7,0 9,1 15,7 16,9 13 7 33 18 SSW 996,6 20 0 0,0
24.09.2020 23:00:00 10,4 8,5 9,6 15,9 16,9 8 4 18 10 SW 996,7 20 0 0,2
24.09.2020 22:00:00 9,9 8,7 9,1 16,1 16,9 4 2 18 10 S 996,7 20 0 0,0
24.09.2020 21:00:00 9,9 8,8 9,0 16,2 16,9 6 4 16 9 SSE 996,8 20 0 0,0
24.09.2020 20:00:00 10,9 9,8 10,0 16,5 16,9 6 3 35 19 SE 995,9 20 0 0,2
24.09.2020 19:00:00 11,3 9,7 10,6 16,5 16,9 27 14 51 27 W 997,2 7 0 1,4
24.09.2020 18:00:00 15,8 8,3 15,7 16,5 16,9 11 6 30 16 S 996,6 20 2 0,0
24.09.2020 17:00:00 16,7 7,6 17,2 16,2 16,9 9 5 36 20 SW 998,0 20 2 0,0
24.09.2020 16:00:00 16,9 8,3 17,7 16,0 16,9 11 6 29 15 SSW 998,9 20 15 0,0
24.09.2020 15:00:00 16,6 9,3 17,8 15,6 16,9 11 6 33 18 SSW 999,4 20 18 0,0
24.09.2020 14:00:00 16,8 10,4 13,3 15,4 17,0 13 7 34 18 S 1000,3 20 31 0,0
24.09.2020 13:00:00 13,4 10,2 12,4 15,3 17,0 14 8 40 22 S 1001,1 20 0 0,2
24.09.2020 12:00:00 14,1 10,1 14,6 15,3 16,9 13 7 46 25 SSW 1001,6 20 0 0,0
24.09.2020 11:00:00 13,8 9,6 13,7 15,3 17,0 15 8 40 22 SSW 1002,0 20 1 0,0
24.09.2020 10:00:00 12,7 9,3 11,4 15,4 16,9 13 7 33 18 S 1002,1 20 25 0,0
24.09.2020 09:00:00 10,9 8,1 9,2 15,6 17,0 13 7 27 15 S 1002,7 20 19 0,0
24.09.2020 08:00:00 9,8 7,7 9,0 15,9 17,0 9 5 27 15 S 1002,9 20 0 0,0
24.09.2020 07:00:00 10,1 8,5 9,0 16,1 17,0 10 6 27 15 S 1003,6 20 0 0,0
24.09.2020 06:00:00 10,2 8,3 9,0 16,4 17,0 10 5 27 15 SSW 1003,8 20 0 0,0
24.09.2020 05:00:00 10,5 8,8 9,4 16,6 17,0 8 4 22 12 SSW 1003,8 20 0 0,0
24.09.2020 04:00:00 11,9 10,0 10,7 16,8 17,0 14 8 35 19 WSW 1003,7 18 0 0,6
24.09.2020 03:00:00 12,3 9,7 11,1 17,0 17,0 15 8 33 18 SW 1003,3 20 0 0,0
24.09.2020 02:00:00 12,4 9,6 11,0 17,3 17,0 14 8 30 16 WSW 1002,7 19 0 0,2
24.09.2020 01:00:00 12,7 9,7 11,9 17,5 17,0 15 8 30 16 WSW 1002,3 20 0 0,0
24.09.2020 00:00:00 13,3 10,1 12,4 17,8 17,0 14 8 32 17 WSW 1001,8 20 0 0,0
23.09.2020 23:00:00 13,7 10,7 12,9 18,0 17,0 19 10 53 28 WSW 1001,8 20 0 0,4
23.09.2020 22:00:00 14,7 13,6 14,2 18,1 17,0 28 15 50 27 W 1001,4 4,8 0 0,8
23.09.2020 21:00:00 16,0 14,4 15,4 18,3 17,0 6 3 21 12 S 1000,3 20 0 0,0
23.09.2020 20:00:00 16,2 15,2 15,3 18,4 17,0 7 4 31 17 SSW 1000,7 9 0 6,6
23.09.2020 19:00:00 17,3 15,5 16,3 18,4 17,0 6 4 29 16 S 1000,8 20 0 0,2
23.09.2020 18:00:00 17,7 15,7 16,1 18,4 17,0 10 5 39 21 S 1001,4 20 0 1,6
23.09.2020 17:00:00 20,4 14,1 17,9 18,2 17,0 10 6 29 16 S 1002,0 18 0 0,0
23.09.2020 16:00:00 21,2 13,1 21,0 18,0 17,0 15 8 33 18 SSW 1002,6 20 0 0,0
23.09.2020 15:00:00 21,4 12,3 22,3 17,7 17,0 10 5 26 14 S 1003,4 20 11 0,0
23.09.2020 14:00:00 20,3 12,8 21,2 17,5 17,0 16 8 36 20 SW 1004,2 20 20 0,0
23.09.2020 13:00:00 19,1 14,4 19,9 17,4 17,0 15 8 36 19 SW 1004,8 20 3 0,0
23.09.2020 12:00:00 19,2 13,8 19,0 17,2 17,0 13 7 31 17 SW 1004,8 20 0 0,0
23.09.2020 11:00:00 18,4 14,3 19,1 17,2 17,0 11 6 30 16 SSW 1004,8 20 13 0,0
23.09.2020 10:00:00 17,6 14,9 16,6 17,2 17,0 9 5 27 15 S 1004,8 20 2 0,0
23.09.2020 09:00:00 16,5 14,1 15,8 17,2 17,0 8 5 18 10 S 1004,9 20 0 0,0
23.09.2020 08:00:00 16,1 14,1 15,0 17,3 17,0 7 4 18 10 S 1005,1 19 0 0,0
23.09.2020 07:00:00 15,6 13,8 14,7 17,4 17,0 8 4 13 7 SSE 1005,4 14 0 0,0
23.09.2020 06:00:00 15,4 13,8 14,4 17,5 17,0 6 3 15 8 S 1005,6 11 0 0,0
23.09.2020 05:00:00 16,0 14,4 15,6 17,6 17,0 8 4 14 8 SSE 1006,0 8 0 0,0
23.09.2020 04:00:00 16,1 14,6 15,4 17,7 17,0 6 3 16 8 S 1006,6 9 0 0,0
23.09.2020 03:00:00 15,7 14,2 14,6 17,8 17,0 6 3 15 8 S 1007,0 9 0 0,0
23.09.2020 02:00:00 15,1 14,0 13,8 18,0 17,0 6 4 12 7 S 1007,3 8 0 0,0
23.09.2020 01:00:00 14,6 13,6 13,5 18,2 17,0 6 3 10 6 S 1007,7 6 0 0,0
23.09.2020 00:00:00 14,6 13,5 13,3 18,4 17,0 5 3 10 5 S 1008,3 6 0 0,0
22.09.2020 23:00:00 14,5 13,4 12,7 18,6 17,0 2 1 5 3 S 1008,5 6 0 0,0
22.09.2020 22:00:00 15,3 14,0 12,9 18,8 17,0 2 1 7 4 S 1008,7 8 0 0,0
22.09.2020 21:00:00 15,6 13,6 14,2 19,0 17,0 7 4 20 11 W 1008,8 10 0 0,0
22.09.2020 20:00:00 16,8 14,4 16,0 19,1 17,0 14 7 22 12 W 1008,9 11 0 0,0
22.09.2020 19:00:00 18,7 13,5 19,2 18,9 17,0 13 7 23 12 WNW 1008,7 20 56 0,0
22.09.2020 18:00:00 20,8 12,0 23,7 18,7 17,0 15 8 21 12 NW 1008,6 20 60 0,0
22.09.2020 17:00:00 22,5 9,6 26,5 18,3 17,0 15 8 23 13 NW 1009,1 20 60 0,0
22.09.2020 16:00:00 23,0 9,7 27,4 17,8 17,0 9 5 20 11 NW 1009,7 20 60 0,0
22.09.2020 15:00:00 23,0 9,0 27,2 17,2 17,0 10 6 16 8 W 1010,3 20 60 0,0
22.09.2020 14:00:00 22,4 8,5 25,8 16,6 17,0 6 3 16 8 W 1010,9 20 60 0,0
22.09.2020 13:00:00 21,2 8,8 24,7 16,2 17,0 6 4 12 7 W 1011,7 20 60 0,0
22.09.2020 12:00:00 19,4 7,8 22,1 15,9 17,0 4 2 9 5 WSW 1012,2 20 60 0,0
22.09.2020 11:00:00 15,7 11,7 15,5 15,9 17,0 3 2 9 5 SSE 1012,9 20 60 0,0
22.09.2020 10:00:00 11,1 10,9 8,8 16,0 17,0 6 3 9 5 SSE 1013,2 7 60 0,0
22.09.2020 09:00:00 8,5 8,4 6,6 16,1 17,0 4 2 9 5 SE 1013,3 0,7 7 0,0
22.09.2020 08:00:00 6,9 6,8 6,1 16,4 17,1 5 3 10 5 E 1013,1 0,7 0 0,0
22.09.2020 07:00:00 6,9 6,8 6,1 16,6 17,0 4 2 8 4 E 1013,3 0,3 0 0,0
22.09.2020 06:00:00 7,0 6,7 6,0 16,9 17,0 4 2 7 4 ESE 1013,6 0,2 0 0,0
22.09.2020 05:00:00 7,5 7,2 6,0 17,1 17,0 4 2 8 4 SE 1014,0 0,2 0 0,2
22.09.2020 04:00:00 8,3 7,9 5,9 17,4 17,0 3 2 6 3 S 1014,4 0,1 0 0,0
22.09.2020 03:00:00 10,6 10,1 5,9 17,8 17,0 2 1 5 3 WNW 1014,7 0,1 0 0,0
22.09.2020 02:00:00 11,2 10,7 6,6 18,1 17,0 0 0 4 2 N 1015,0 2,5 0 0,0
22.09.2020 01:00:00 11,6 10,8 7,0 18,4 17,0 0 0 6 3 N 1015,5 8 0 0,0
22.09.2020 00:00:00 12,3 11,7 9,3 18,8 17,0 0 0 4 2 N 1015,8 11 0 0,0
21.09.2020 23:00:00 13,0 12,1 9,7 19,1 17,0 3 2 5 3 N 1015,9 8 0 0,0
21.09.2020 22:00:00 14,7 14,1 11,1 19,4 17,0 4 2 6 3 N 1015,7 2,1 0 0,0
21.09.2020 21:00:00 15,2 13,6 11,8 19,6 17,0 5 3 12 7 NW 1015,7 8 0 0,0
21.09.2020 20:00:00 17,6 13,7 16,2 19,6 17,0 10 6 17 9 WNW 1015,3 20 1 0,0
21.09.2020 19:00:00 20,8 13,5 21,4 19,5 17,0 11 6 20 11 WNW 1015,1 20 60 0,0
21.09.2020 18:00:00 22,2 14,1 24,1 19,2 17,0 13 7 23 12 W 1015,3 20 60 0,0
21.09.2020 17:00:00 23,8 7,8 28,9 18,7 17,0 8 5 17 9 NNW 1015,5 20 60 0,0
21.09.2020 16:00:00 23,4 7,5 29,4 18,2 17,0 10 5 17 9 N 1015,8 20 60 0,0
21.09.2020 15:00:00 23,2 8,5 28,5 17,7 17,0 9 5 18 10 NNW 1016,3 20 60 0,0
21.09.2020 14:00:00 22,6 8,3 27,2 17,2 17,0 8 4 18 10 NNE 1016,8 20 60 0,0
21.09.2020 13:00:00 21,7 8,6 25,0 16,9 17,0 11 6 23 12 NNE 1016,8 20 60 0,0
21.09.2020 12:00:00 20,0 10,4 22,6 16,7 17,0 11 6 16 9 NE 1017,1 19 60 0,0
21.09.2020 11:00:00 16,9 11,0 17,3 16,7 17,0 8 5 15 8 NNE 1017,4 17 60 0,0
21.09.2020 10:00:00 13,0 10,9 10,2 16,9 17,0 3 2 6 3 E 1017,6 13 60 0,0
21.09.2020 09:00:00 11,1 10,8 6,6 17,1 17,0 4 2 6 4 E 1017,4 9 20 0,2
21.09.2020 08:00:00 8,8 8,5 4,7 17,4 17,0 0 0 10 5 N 1017,3 0,2 0 0,0
21.09.2020 07:00:00 8,6 8,0 4,4 17,7 17,0 5 3 8 4 NW 1016,9 0,1 0 0,0
21.09.2020 06:00:00 10,0 9,5 5,3 18,0 17,0 2 1 3 2 N 1016,7 0,3 0 0,0
21.09.2020 05:00:00 10,6 10,0 6,7 18,4 17,0 0 0 5 3 N 1016,6 6 0 0,0
21.09.2020 04:00:00 10,8 10,3 6,1 18,7 17,0 3 1 10 5 NNW 1017,0 7 0 0,0
21.09.2020 03:00:00 10,6 9,4 7,1 19,0 17,0 6 4 7 4 NNW 1017,3 7 0 0,0
21.09.2020 02:00:00 11,5 10,2 8,4 19,4 17,0 2 1 8 4 NNW 1017,4 18 0 0,0
21.09.2020 01:00:00 12,9 10,6 9,3 19,7 17,0 3 2 11 6 N 1017,3 20 0 0,0
21.09.2020 00:00:00 14,9 10,7 13,2 19,9 17,0 9 5 14 8 ENE 1017,5 20 0 0,0
20.09.2020 23:00:00 16,0 10,5 14,0 20,2 17,0 7 4 23 12 NE 1017,9 20 0 0,0
20.09.2020 22:00:00 17,1 10,9 15,7 20,5 17,0 11 6 25 14 NNE 1017,5 20 0 0,0
20.09.2020 21:00:00 18,9 11,9 17,8 20,6 17,0 17 9 26 14 NNE 1017,1 20 0 0,0
20.09.2020 20:00:00 21,2 13,1 20,1 20,7 17,0 13 7 20 11 NNE 1016,3 20 6 0,0
20.09.2020 19:00:00 23,9 10,2 25,2 20,6 17,0 10 5 23 12 N 1015,6 20 60 0,0
20.09.2020 18:00:00 25,2 10,6 27,4 20,4 17,0 17 9 27 14 NNE 1015,4 20 60 0,0
20.09.2020 17:00:00 25,6 13,4 29,1 20,0 17,0 18 10 27 14 NNE 1015,6 20 60 0,0
20.09.2020 16:00:00 26,8 14,2 30,8 19,5 17,0 13 7 19 10 NNE 1015,4 20 60 0,0
20.09.2020 15:00:00 26,1 14,2 30,1 19,1 17,0 10 6 19 10 NE 1015,8 20 57 0,0
20.09.2020 14:00:00 25,7 14,8 27,9 18,7 17,0 10 5 16 9 NNE 1015,8 20 40 0,0
20.09.2020 13:00:00 24,9 15,2 25,0 18,3 17,0 10 5 18 10 SE 1016,0 20 33 0,0
20.09.2020 12:00:00 23,6 14,9 24,8 18,0 17,0 13 7 18 10 ENE 1016,0 20 52 0,0
20.09.2020 11:00:00 22,6 14,7 24,6 17,9 17,0 10 6 19 11 ENE 1015,8 20 56 0,0
20.09.2020 10:00:00 21,2 14,8 19,2 17,9 17,0 11 6 16 9 ENE 1015,4 20 55 0,0
20.09.2020 09:00:00 18,8 14,5 17,3 17,9 17,0 11 6 18 10 ENE 1015,2 19 0 0,0
20.09.2020 08:00:00 18,0 14,3 17,3 18,0 17,0 11 6 18 10 ENE 1014,8 18 0 0,0
20.09.2020 07:00:00 18,4 14,7 17,5 18,0 17,0 11 6 17 9 ENE 1014,7 20 0 0,0
20.09.2020 06:00:00 18,7 15,4 17,8 18,1 17,1 15 8 24 13 ENE 1014,2 20 0 0,0
20.09.2020 05:00:00 18,6 15,1 17,0 18,2 17,0 13 7 18 10 NE 1013,9 20 0 0,0
20.09.2020 04:00:00 18,4 14,7 17,1 18,3 17,1 9 5 14 8 E 1014,1 20 0 0,0
20.09.2020 03:00:00 19,2 14,5 18,1 18,4 17,1 11 6 19 10 ENE 1014,0 20 0 0,0
20.09.2020 02:00:00 19,2 14,5 18,4 18,4 17,0 16 9 22 12 NE 1014,0 20 0 0,0
20.09.2020 01:00:00 19,7 14,5 18,6 18,5 17,1 11 6 16 9 NE 1014,3 20 0 0,0
20.09.2020 00:00:00 19,8 14,4 18,7 18,6 17,1 11 6 17 9 ENE 1014,5 20 0 0,0
19.09.2020 23:00:00 20,0 14,4 18,8 18,7 17,1 13 7 19 10 NE 1014,4 20 0 0,0
19.09.2020 22:00:00 20,7 14,3 19,5 18,8 17,1 9 5 17 9 ENE 1014,3 20 0 0,0
19.09.2020 21:00:00 21,1 14,7 19,5 18,8 17,0 10 5 14 8 ENE 1013,9 20 0 0,0
19.09.2020 20:00:00 21,3 14,7 20,1 18,7 17,1 10 5 16 9 NE 1013,6 20 0 0,0
19.09.2020 19:00:00 22,8 14,9 22,1 18,6 17,1 12 6 23 13 E 1013,3 20 0 0,0
19.09.2020 18:00:00 24,3 15,0 24,2 18,3 17,1 12 6 23 12 ENE 1013,2 20 20 0,0
19.09.2020 17:00:00 24,5 14,9 25,0 18,1 17,0 16 9 26 14 E 1013,6 20 20 0,0
19.09.2020 16:00:00 23,8 15,0 22,4 17,9 17,0 17 9 23 12 E 1013,8 20 0 0,0
19.09.2020 15:00:00 23,3 14,8 23,4 17,8 17,1 12 6 21 11 E 1014,1 20 0 0,0
19.09.2020 14:00:00 22,0 14,9 21,5 17,6 17,1 12 6 20 11 E 1014,7 20 0 0,0
19.09.2020 13:00:00 21,4 14,5 21,7 17,4 17,1 14 8 26 14 E 1014,9 20 0 0,0
19.09.2020 12:00:00 21,2 14,1 21,0 17,2 17,1 14 8 22 12 E 1014,7 20 0 0,0
19.09.2020 11:00:00 21,0 13,2 21,2 17,1 17,1 16 8 26 14 E 1014,9 20 60 0,0
19.09.2020 10:00:00 18,9 11,9 17,1 17,1 17,1 19 10 28 15 E 1014,8 20 42 0,0
19.09.2020 09:00:00 16,9 11,0 16,1 17,1 17,1 19 10 32 18 E 1014,6 20 6 0,0
19.09.2020 08:00:00 16,3 10,8 15,1 17,2 17,1 21 11 33 18 E 1014,3 20 1 0,0
19.09.2020 07:00:00 15,8 10,8 15,1 17,3 17,1 23 13 31 17 ENE 1013,9 20 0 0,0
19.09.2020 06:00:00 16,1 10,8 15,2 17,4 17,1 23 12 30 16 ENE 1014,1 20 0 0,0
19.09.2020 05:00:00 16,2 10,9 15,4 17,5 17,1 21 11 29 15 ENE 1014,4 20 0 0,0
19.09.2020 04:00:00 16,5 11,0 15,6 17,7 17,1 19 10 26 14 ENE 1014,7 20 0 0,0
19.09.2020 03:00:00 16,8 11,1 15,7 17,9 17,1 17 9 27 15 ENE 1015,4 20 0 0,0
19.09.2020 02:00:00 17,2 11,0 16,3 18,0 17,1 19 10 31 17 ENE 1015,7 20 0 0,0

tt = temperature
td = dewpoint
tt 5cm = temperature 5cm
tt -20cm = temperature -20cm
tt -100cm = temperature -100cm
ff = wind speed
fx = gusts
dd = wind direction
ppp = reduced air pressure
vv = visibility
sd = sunshine duration
rr = precipitation

Next stations